Date String (YYYY-MM-DD hh:mm:ss) UTC,Instrument flags,absolute air pressure of the measurement (hPa),sample flow rate (lpm),inlet stack bypass flow (lpm),air temperature of the measurement (°C),ambient temperature measured by the external sensor (°C),aerosol sample conditioner tube jacket temperature (°C),OPC LED temperature (°C),internal box temperature (°C),relative humidity of the measurement (%),span deviation,mass concentration of particles derived from Lorenz-Mie calculation of OPC scattering (μg/m³),mass concentration of particles derived from Lorenz-Mie calculation of OPC scattering (μg/m³),mass concentration of particles derived from Lorenz-Mie calculation of OPC scattering (μg/m³)
DateTimeUTC,F1_M11,P_M11,Q1_M11,Q2_M11,T1_M11,T2_M11,T3_M11,T4_M11,T5_M11,U1_M11,ZSPAN_M11,X2_M11,X0_M11,X1_M11
2024-02-24 00:00:00,SystemResetWarning,0830.9,4.99,000.00,023.1,022.3,000.0,031.4,024.9,07.9,0000.0,0000.60,0001.51,0000.44
2024-02-24 00:01:00,SystemResetWarning,0830.9,5.00,000.00,023.1,022.3,000.0,031.4,024.9,07.9,0000.0,0000.58,0001.48,0000.44
2024-02-24 00:02:00,SystemResetWarning,0830.9,5.01,000.00,023.1,022.3,000.0,031.4,024.9,07.8,0000.0,0000.58,0001.50,0000.44
2024-02-24 00:03:00,SystemResetWarning,0831.0,5.01,000.00,023.1,022.3,000.0,031.5,024.9,07.7,0000.0,0000.59,0001.51,0000.44
2024-02-24 00:04:00,SystemResetWarning,0830.9,4.99,000.00,023.1,022.3,000.0,031.5,024.9,07.8,0000.0,0000.58,0001.51,0000.43
2024-02-24 00:05:00,SystemResetWarning,0830.9,4.99,000.00,023.1,022.3,000.0,031.5,024.9,07.8,0000.0,0000.56,0001.44,0000.43
2024-02-24 00:06:00,SystemResetWarning,0830.9,4.99,000.00,023.1,022.3,000.0,031.5,024.9,07.5,0000.0,0000.54,0001.33,0000.43
2024-02-24 00:07:00,SystemResetWarning,0830.9,5.00,000.00,023.2,022.3,000.0,031.5,024.9,07.7,0000.0,0000.51,0001.14,0000.43
2024-02-24 00:08:00,SystemResetWarning,0830.9,5.02,000.00,023.2,022.3,000.0,031.5,024.9,07.7,0000.0,0000.52,0001.15,0000.43
2024-02-24 00:09:00,SystemResetWarning,0830.9,5.00,000.00,023.2,022.3,000.0,031.5,025.0,07.6,0000.0,0000.52,0001.14,0000.44
2024-02-24 00:10:00,SystemResetWarning,0830.9,4.99,000.00,023.2,022.3,000.0,031.5,025.0,07.5,0000.0,0000.52,0001.13,0000.44
2024-02-24 00:11:00,SystemResetWarning,0830.9,5.00,000.00,023.2,022.3,000.0,031.5,024.9,07.5,0000.0,0000.54,0000.90,0000.45
2024-02-24 00:12:00,SystemResetWarning,0830.9,5.00,000.00,023.2,022.3,000.0,031.5,024.9,07.5,0000.0,0000.57,0000.86,0000.46
2024-02-24 00:13:00,SystemResetWarning,0830.9,5.00,000.00,023.2,022.4,000.0,031.5,024.9,07.6,0000.0,0000.56,0000.83,0000.46
2024-02-24 00:14:00,SystemResetWarning,0830.9,5.01,000.00,023.2,022.3,000.0,031.5,024.9,07.6,0000.0,0000.57,0000.97,0000.46
2024-02-24 00:15:00,SystemResetWarning,0830.9,5.01,000.00,023.1,022.3,000.0,031.5,024.9,07.6,0000.0,0000.56,0002.53,0000.45
2024-02-24 00:16:00,SystemResetWarning,0830.9,5.00,000.00,023.1,022.3,000.0,031.5,024.9,07.6,0000.0,0000.56,0002.52,0000.46
2024-02-24 00:17:00,SystemResetWarning,0830.9,5.00,000.00,023.1,022.3,000.0,031.5,024.9,07.6,0000.0,0000.58,0002.59,0000.45
2024-02-24 00:18:00,SystemResetWarning,0830.9,4.99,000.00,023.1,022.3,000.0,031.5,024.9,07.6,0000.0,0000.58,0002.64,0000.45
2024-02-24 00:19:00,SystemResetWarning,0830.9,4.99,000.00,023.1,022.3,000.0,031.5,024.9,07.6,0000.0,0000.56,0003.58,0000.45
2024-02-24 00:20:00,SystemResetWarning,0831.0,5.00,000.00,023.1,022.3,000.0,031.5,025.0,07.6,0000.0,0000.55,0003.57,0000.45
2024-02-24 00:21:00,SystemResetWarning,0830.9,5.01,000.00,023.1,022.3,000.0,031.5,025.0,07.3,0000.0,0000.55,0003.59,0000.44
2024-02-24 00:22:00,SystemResetWarning,0831.0,5.01,000.00,023.1,022.3,000.0,031.5,024.9,07.3,0000.0,0000.54,0003.56,0000.45
2024-02-24 00:23:00,SystemResetWarning,0831.0,4.99,000.00,023.1,022.3,000.0,031.5,024.9,07.3,0000.0,0000.52,0003.53,0000.44
2024-02-24 00:24:00,SystemResetWarning,0830.9,4.99,000.00,023.1,022.3,000.0,031.5,024.9,07.3,0000.0,0000.54,0003.56,0000.44
2024-02-24 00:25:00,SystemResetWarning,0831.0,4.99,000.00,023.1,022.3,000.0,031.5,024.9,07.1,0000.0,0000.53,0003.56,0000.43
2024-02-24 00:26:00,SystemResetWarning,0831.0,5.01,000.00,023.1,022.3,000.0,031.5,024.9,07.3,0000.0,0000.53,0002.31,0000.44
2024-02-24 00:27:00,SystemResetWarning,0831.1,5.01,000.00,023.1,022.3,000.0,031.5,024.9,07.3,0000.0,0000.57,0001.94,0000.45
2024-02-24 00:28:00,SystemResetWarning,0831.1,5.00,000.00,023.1,022.3,000.0,031.5,024.9,07.3,0000.0,0000.55,0001.89,0000.44
2024-02-24 00:29:00,SystemResetWarning,0831.0,5.00,000.00,023.1,022.3,000.0,031.5,024.9,07.4,0000.0,0000.54,0001.85,0000.44
2024-02-24 00:30:00,SystemResetWarning,0831.0,4.99,000.00,023.1,022.2,000.0,031.5,024.9,07.4,0000.0,0000.54,0000.98,0000.44
2024-02-24 00:31:00,SystemResetWarning,0831.0,5.00,000.00,023.1,022.2,000.0,031.5,024.9,07.4,0000.0,0000.55,0000.83,0000.45
2024-02-24 00:32:00,SystemResetWarning,0830.9,4.99,000.00,023.1,022.2,000.0,031.5,024.9,07.4,0000.0,0000.54,0000.82,0000.45
2024-02-24 00:33:00,SystemResetWarning,0831.0,5.00,000.00,023.1,022.2,000.0,031.5,024.9,07.3,0000.0,0000.54,0000.81,0000.45
2024-02-24 00:34:00,SystemResetWarning,0830.9,5.01,000.00,023.1,022.2,000.0,031.5,024.8,07.3,0000.0,0000.53,0000.77,0000.44
2024-02-24 00:35:00,SystemResetWarning,0830.9,5.00,000.00,023.0,022.2,000.0,031.5,024.9,07.3,0000.0,0000.53,0000.79,0000.44
2024-02-24 00:36:00,SystemResetWarning,0831.0,5.00,000.00,023.1,022.2,000.0,031.5,024.9,07.4,0000.0,0000.54,0000.79,0000.45
2024-02-24 00:37:00,SystemResetWarning,0831.0,5.00,000.00,023.0,022.2,000.0,031.5,024.8,07.4,0000.0,0000.52,0000.76,0000.44
2024-02-24 00:38:00,SystemResetWarning,0831.0,4.99,000.00,023.0,022.2,000.0,031.5,024.8,07.4,0000.0,0000.50,0000.68,0000.44
2024-02-24 00:39:00,SystemResetWarning,0830.9,5.00,000.00,023.0,022.2,000.0,031.5,024.8,07.2,0000.0,0000.51,0000.71,0000.43
2024-02-24 00:40:00,SystemResetWarning,0830.9,5.00,000.00,023.0,022.2,000.0,031.5,024.8,07.2,0000.0,0000.52,0000.75,0000.44
2024-02-24 00:41:00,SystemResetWarning,0830.9,5.00,000.00,023.0,022.1,000.0,031.5,024.8,07.3,0000.0,0000.52,0000.76,0000.44
2024-02-24 00:42:00,SystemResetWarning,0830.9,5.00,000.00,023.0,022.1,000.0,031.5,024.8,07.3,0000.0,0000.54,0000.83,0000.43
2024-02-24 00:43:00,SystemResetWarning,0830.9,5.00,000.00,023.0,022.1,000.0,031.5,024.8,07.1,0000.0,0000.56,0000.94,0000.44
2024-02-24 00:44:00,SystemResetWarning,0830.9,5.00,000.00,023.0,022.1,000.0,031.5,024.8,07.1,0000.0,0000.56,0000.94,0000.44
2024-02-24 00:45:00,SystemResetWarning,0831.0,5.00,000.00,023.0,022.1,000.0,031.5,024.8,07.1,0000.0,0000.58,0001.00,0000.44
2024-02-24 00:46:00,SystemResetWarning,0831.0,5.00,000.00,023.0,022.1,000.0,031.5,024.8,07.0,0000.0,0000.57,0000.98,0000.44
2024-02-24 00:47:00,SystemResetWarning,0831.0,5.01,000.00,023.0,022.1,000.0,031.4,024.8,07.1,0000.0,0000.56,0000.95,0000.43
2024-02-24 00:48:00,SystemResetWarning,0831.0,5.01,000.00,022.9,022.1,000.0,031.4,024.7,07.2,0000.0,0000.57,0000.97,0000.43
2024-02-24 00:49:00,SystemResetWarning,0830.9,5.01,000.00,022.9,022.1,000.0,031.4,024.7,07.2,0000.0,0000.56,0000.95,0000.43
2024-02-24 00:50:00,SystemResetWarning,0830.9,5.00,000.00,022.9,022.1,000.0,031.4,024.7,07.1,0000.0,0000.56,0000.94,0000.43
2024-02-24 00:51:00,SystemResetWarning,0831.0,5.00,000.00,022.9,022.0,000.0,031.4,024.7,07.0,0000.0,0000.54,0000.88,0000.43
2024-02-24 00:52:00,SystemResetWarning,0831.1,5.00,000.00,022.9,022.0,000.0,031.4,024.7,07.1,0000.0,0000.54,0000.87,0000.43
2024-02-24 00:53:00,SystemResetWarning,0831.1,4.99,000.00,022.9,022.0,000.0,031.4,024.7,07.0,0000.0,0000.51,0000.81,0000.43
2024-02-24 00:54:00,SystemResetWarning,0831.0,5.00,000.00,022.9,022.0,000.0,031.4,024.7,07.1,0000.0,0000.49,0000.67,0000.42
2024-02-24 00:55:00,SystemResetWarning,0831.0,5.01,000.00,022.9,022.0,000.0,031.4,024.7,07.0,0000.0,0000.48,0000.66,0000.42
2024-02-24 00:56:00,SystemResetWarning,0831.1,5.00,000.00,022.9,022.0,000.0,031.4,024.7,07.1,0000.0,0000.48,0000.66,0000.42
2024-02-24 00:57:00,SystemResetWarning,0831.1,5.00,000.00,022.9,022.0,000.0,031.4,024.6,07.1,0000.0,0000.48,0000.66,0000.42
2024-02-24 00:58:00,SystemResetWarning,0831.1,5.00,000.00,022.8,022.0,000.0,031.4,024.6,07.2,0000.0,0000.49,0000.67,0000.43
2024-02-24 00:59:00,SystemResetWarning,0831.0,5.00,000.00,022.8,021.9,000.0,031.4,024.6,07.1,0000.0,0000.48,0000.65,0000.43
